CAPE
3 33 143 62 74 33 66 0 69 156 51 391 459 68 369 766 826 1113 1276 864 1095 1353 1194 1341 330 235 987 1313 1343 1314 1951 1343 608 655 662 171 223 418 494 628 771 529 567
18 34 14 24 3 30 132 100 67 154 172 421 583 456 384 786 572 620 1162 1369 839 1059 1105 1061 909 856 668 133 556 1837 1859 1342 410 1016 647 232 239 216 464 516 796 770 775
15 2 0 0 4 92 291 186 146 194 569 461 229 175 393 433 564 721 753 779 1137 1091 848 573 571 311 37 0 29 1348 1853 1593 1395 1091 1097 715 536 331 79 170 304 258 400
15 0 2 0 74 104 222 198 221 416 378 248 277 194 205 318 328 368 345 463 63 884 1016 177 501 124 0 54 452 805 1658 1440 1519 1309 687 128 436 870 384 188 267 266 248
5 12 10 0 75 171 233 313 313 423 494 243 223 239 142 111 384 281 291 91 125 697 1290 44 651 172 131 459 885 1338 1391 1635 1226 614 249 200 34 196 274 207 4 137 264
3 27 20 15 43 81 249 278 250 325 392 285 335 347 184 265 294 217 408 378 466 425 402 1053 843 613 237 8 47 1143 1388 1466 1370 400 0 0 15 75 326 79 0 7 126
104 35 1 6 43 58 139 259 167 237 408 292 355 280 357 228 171 91 155 376 439 253 201 578 694 247 101 0 262 737 726 1210 1207 1284 321 0 0 0 66 347 335 0 10
93 77 1 37 77 264 193 254 201 207 513 245 227 196 350 270 208 45 108 377 186 43 191 385 597 685 683 470 859 615 749 773 446 316 436 895 11 0 141 84 0 6 6
127 111 18 73 86 170 426 445 338 354 382 365 286 340 313 366 446 512 108 74 142 223 137 293 75 45 527 683 785 561 554 476 156 2 571 806 777 410 137 96 0 318 263
92 137 99 217 186 76 20 500 523 593 532 560 462 232 550 340 364 302 248 331 305 123 177 53 0 0 92 551 628 699 567 561 429 0 395 393 431 493 441 294 23 285 97
33 166 182 299 266 252 269 63 155 787 836 486 674 433 633 523 320 147 104 97 10 0 17 0 0 70 513 613 473 502 559 463 358 396 414 504 317 557 724 461 464 306 233
56 178 122 41 90 73 47 118 34 264 804 498 627 755 522 411 423 277 196 0 0 0 0 0 48 566 735 600 576 645 1051 640 537 403 432 538 581 377 361 349 354 361 282
93 145 96 6 27 11 38 50 23 6 502 402 475 365 178 53 302 98 40 85 212 214 38 280 526 623 509 461 403 513 498 557 611 577 380 521 446 562 409 149 96 367 287
100 128 107 53 24 73 38 36 161 285 274 216 363 203 54 20 243 130 23 25 163 98 175 283 475 41 0 0 0 9 126 403 475 508 681 467 541 365 312 373 243 320 123
81 129 96 71 60 82 421 170 331 223 127 124 97 161 120 94 80 36 37 20 27 62 69 1 0 0 0 0 0 0 0 199 242 438 409 44 9 2 6 97 203 303 118
154 156 99 119 89 154 102 258 179 146 95 89 46 87 65 30 20 61 66 6 33 13 47 0 0 0 0 0 0 0 0 0 343 457 294 0 0 0 0 0 0 15 122
326 138 82 117 81 57 176 15 166 142 124 127 229 284 172 154 168 196 146 51 21 38 0 0 0 0 0 0 0 0 0 1 186 242 183 0 0 0 0 0 140 11 0
24 2 1 2 2 1 1 19 23 139 177 222 279 286 229 195 104 34 4 0 11 3 0 0 0 0 0 0 0 0 1 3 0 0 0 0 0 0 0 0 0 0 0
0 3 2 3 3 6 4 1 1 1 49 166 266 213 122 67 4 1 0 0 0 0 0 0 0 0 0 0 0 0 0 0 0 0 0 0 0 0 0 0 0 0 0
0 0 2 2 3 1 1 1 0 0 0 0 0 0 0 0 0 0 0 0 0 0 0 0 0 0 0 0 0 0 0 0 0 0 0 0 0 0 0 0 0 0 0
0 0 0 0 0 2 0 0 1 0 0 0 0 0 0 0 0 0 0 0 0 0 0 0 0 0 0 0 0 0 0 0 0 0 0 0 0 0 0 0 0 0 0
0 0 0 0 0 0 0 0 0 0 0 0 0 0 0 0 0 0 0 0 0 0 0 0 0 0 0 0 0 0 0 0 0 0 0 0 0 0 0 0 0 0 0
0 0 0 0 0 0 0 0 0 0 0 0 0 0 0 0 0 0 0 0 0 0 0 0 0 0 0 0 0 0 0 0 0 0 0 0 0 0 0 0 0 0 0
0 0 0 0 0 0 0 0 0 0 0 0 0 0 0 0 0 0 0 0 0 0 0 0 0 0 0 0 0 0 0 0 0 0 0 0 0 0 0 0 0 0 0
0 0 0 0 0 0 0 0 0 0 0 0 0 0 0 0 0 0 0 0 0 0 0 0 0 0 0 0 0 0 0 0 0 0 0 0 0 0 0 0 0 0 0
0 0 0 0 0 0 0 0 0 0 0 0 0 0 0 0 0 0 0 0 0 0 0 0 0 0 0 0 0 0 0 0 0 0 0 0 0 0 0 0 0 0 0
CIN
-111 -159 -130 -145 -176 -177 -127 0 -133 -109 -139 -100 -92 -135 -98 -84 -90 -82 -71 -74 -74 -80 -97 -122 -228 -289 -170 -186 -154 -121 -99 -101 -199 -153 -157 -251 -272 -211 -329 -261 -234 -271 -259
-119 -136 -165 -114 -26 -192 -114 -135 -130 -124 -104 -104 -105 -116 -117 -91 -104 -106 -72 -52 -64 -76 -118 -128 -154 -187 -191 -177 -221 -140 -104 -133 -236 -113 -178 -123 -197 -299 -316 -295 -199 -184 -214
-134 -41 0 0 -19 -177 -116 -125 -124 -125 -95 -116 -155 -170 -144 -141 -91 -93 -94 -103 -99 -77 -135 -172 -173 -230 -131 0 -213 -164 -110 -95 -149 -203 -112 -111 -76 -257 -372 -288 -329 -321 -332
-89 -62 -118 0 -152 -167 -131 -128 -122 -108 -121 -134 -100 -100 -107 -87 -129 -132 -128 -121 -217 -95 -105 -188 -161 -232 0 -203 -194 -243 -130 -124 -111 -160 -253 -437 -292 -92 -94 -279 -366 -393 -440
-84 -123 -158 0 -160 -162 -134 -113 -113 -100 -99 -125 -112 -116 -131 -164 -133 -148 -115 -202 -188 -98 -63 -179 -134 -203 -229 -187 -158 -121 -123 -103 -137 -198 -306 -322 -506 -411 -261 -161 -78 -452 -459
-47 -134 -128 -133 -142 -164 -142 -147 -132 -112 -118 -114 -114 -99 -135 -128 -144 -164 -131 -137 -130 -138 -163 -70 -112 -146 -200 -173 -81 -134 -90 -86 -135 -267 0 0 -223 -322 -255 -354 -29 -165 -459
-125 -146 -60 -125 -127 -147 -162 -153 -149 -129 -118 -119 -100 -106 -105 -138 -137 -201 -190 -150 -142 -176 -188 -146 -147 -211 -219 0 -154 -128 -121 -90 -104 -122 -255 0 0 0 -416 -279 -284 0 -168
-122 -97 -39 -159 -134 -123 -142 -137 -177 -121 -101 -132 -114 -121 -117 -137 -169 -252 -230 -153 -209 -260 -210 -158 -128 -117 -115 -136 -106 -107 -99 -132 -166 -170 -180 -166 -76 0 -351 -307 -11 -277 -140
-148 -123 -177 -197 -196 -146 -128 -139 -175 -140 -125 -111 -121 -100 -89 -98 -105 -141 -223 -226 -259 -213 -233 -167 -211 -205 -102 -89 -88 -102 -90 -127 -167 -16 -150 -129 -152 -181 -244 -323 0 -172 -131
-131 -140 -242 -202 -233 -278 -324 -165 -141 -128 -106 -95 -99 -121 -84 -82 -96 -162 -185 -163 -180 -238 -228 -282 0 0 -191 -93 -90 -85 -95 -74 -117 0 -137 -140 -148 -140 -145 -163 -123 -176 -220
-146 -205 -234 -222 -211 -180 -174 -268 -209 -86 -88 -107 -79 -80 -69 -63 -95 -139 -190 -220 -85 0 -317 0 0 -235 -84 -71 -89 -81 -71 -58 -76 -107 -115 -99 -120 -90 -95 -128 -124 -117 -163
-180 -192 -235 -313 -292 -305 -334 -286 -292 -148 -68 -114 -86 -70 -89 -93 -77 -110 -156 0 0 0 0 0 -204 -101 -65 -80 -62 -41 -37 -47 -66 -74 -87 -79 -68 -93 -121 -132 -111 -120 -132
-203 -145 -201 -285 -305 -324 -301 -242 -268 -207 -104 -114 -84 -40 -76 -128 -106 -141 -212 -198 -129 -130 -29 -116 -73 -57 -76 -95 -112 -89 -83 -67 -58 -70 -93 -63 -76 -58 -88 -107 -114 -93 -102
-229 -204 -211 -212 -249 -306 -252 -214 -143 -83 -115 -130 -75 -70 -150 -164 -127 -158 -207 -204 -139 -165 -138 -103 -68 -86 0 0 0 -117 -176 -105 -93 -80 -66 -88 -67 -77 -80 -71 -91 -94 -110
-306 -244 -167 -219 -247 -200 -83 -104 -68 -121 -183 -214 -185 -133 -156 -172 -171 -162 -162 -163 -164 -157 -126 -39 0 0 0 0 0 0 0 -148 -121 -68 -96 -200 -303 -83 -72 -208 -135 -105 -143
-287 -254 -232 -157 -153 -102 -145 -83 -64 -111 -165 -228 -211 -195 -204 -207 -203 -147 -99 -119 -126 -130 -121 0 0 0 0 0 0 0 0 -117 -106 -60 -79 0 0 0 0 0 0 -270 -124
-223 -279 -303 -113 -158 -161 -113 -260 -68 -108 -119 -148 -114 -92 -128 -89 -102 -81 -95 -136 -163 -146 0 0 0 0 0 0 0 0 0 -85 -129 -128 -133 0 0 0 0 0 -156 -198 0
-379 -133 0 0 0 0 0 -64 -66 -51 -108 -100 -97 -89 -113 -87 -156 -179 -95 0 -175 -27 0 0 0 0 0 0 0 0 -165 -145 0 -12 0 0 0 0 0 0 0 0 0
0 0 0 0 0 0 0 0 0 0 -285 -180 -127 -124 -148 -194 -45 -42 0 0 0 0 0 0 0 0 0 0 0 0 0 0 0 0 0 0 0 0 0 0 0 0 0
0 0 0 0 0 0 0 0 0 0 0 0 0 0 0 0 0 0 0 0 0 0 0 0 0 0 0 0 0 0 0 0 0 0 0 0 0 0 0 0 0 0 0
0 0 0 0 0 0 0 0 0 0 0 0 0 0 0 0 0 0 0 0 0 0 0 0 0 0 0 0 0 0 0 0 0 0 0 0 0 0 0 0 0 0 0
0 0 0 0 0 0 0 0 0 0 0 0 0 0 0 0 0 0 0 0 0 0 0 0 0 0 0 0 0 0 0 0 0 0 0 0 0 0 0 0 0 0 0
0 0 0 0 0 0 0 0 0 0 0 0 0 0 0 0 0 0 0 0 0 0 0 0 0 0 0 0 0 0 0 0 0 0 0 0 0 0 0 0 0 0 0
0 0 0 0 0 0 0 0 0 0 0 0 0 0 0 0 0 0 0 0 0 0 0 0 0 0 0 0 0 0 0 0 0 0 0 0 0 0 0 0 0 0 0
0 0 0 0 0 0 0 0 0 0 0 0 0 0 0 0 0 0 0 0 0 0 0 0 0 0 0 0 0 0 0 0 0 0 0 0 0 0 0 0 0 0 0
0 0 0 0 0 0 0 0 0 0 0 0 0 0 0 0 0 0 0 0 0 0 0 0 0 0 0 0 0 0 0 0 0 0 0 0 0 0 0 0 0 0 0
Wind_Speed
18 20 18 14 12 9 9 11 8 7 6 3 4 2 3 2 1 2 6 5 3 4 2 3 3 2 4 3 4 3 6 5 4 2 3 2 2 4 4 3 5 5 6
16 17 18 15 14 13 12 10 8 8 5 4 2 3 2 1 2 1 1 2 2 4 5 4 1 3 4 6 5 6 4 3 2 2 2 2 5 3 6 4 5 6 3
18 17 17 14 13 14 12 11 9 7 6 7 4 3 4 2 2 2 1 2 4 1 6 3 3 4 3 2 2 5 5 3 2 4 3 3 3 2 1 5 4 6 5
14 18 16 15 15 13 12 11 11 8 7 7 5 4 3 3 3 3 2 1 2 2 4 5 3 4 3 1 1 4 3 2 4 2 6 5 1 2 2 4 5 6 7
16 18 17 15 13 13 12 10 11 8 8 7 6 5 4 2 2 2 3 3 1 2 2 4 4 4 2 1 3 4 3 2 2 3 1 1 3 3 3 0 3 3 3
8 13 14 14 12 11 11 9 8 8 8 7 7 7 7 5 4 2 3 3 1 2 0 2 4 4 4 2 1 0 4 2 2 3 2 2 2 1 1 2 0 2 3
8 8 13 14 12 14 12 10 9 7 8 8 8 7 7 8 7 6 4 4 3 2 3 2 5 3 2 3 2 1 2 2 1 3 2 2 1 2 1 2 2 1 3
6 7 9 13 12 13 13 11 11 7 7 9 8 6 7 4 4 5 4 4 3 4 3 4 4 3 4 4 2 2 1 4 1 3 2 3 4 3 2 3 3 3 3
7 7 9 8 8 9 11 13 13 10 9 10 8 8 7 6 6 6 5 4 3 3 4 4 4 2 2 4 3 2 0 1 1 1 2 1 2 2 3 2 3 4 1
7 7 8 12 8 9 7 4 9 12 9 8 9 7 7 6 5 4 6 6 5 5 4 3 3 3 2 3 3 3 2 1 0 2 2 1 1 2 2 2 2 3 4
14 8 7 7 9 7 8 6 3 9 9 8 6 7 6 7 6 5 5 5 4 4 4 6 4 2 4 4 5 5 4 2 3 2 2 3 3 2 2 4 3 2 4
15 12 12 10 9 9 6 5 4 5 6 5 5 5 4 4 6 6 7 5 5 4 6 5 5 5 2 2 4 4 3 3 3 5 3 5 3 3 1 1 1 1 1
13 11 12 11 10 7 8 10 4 7 6 5 6 4 4 5 4 5 5 5 5 6 5 5 5 3 2 3 2 1 3 4 4 4 4 6 4 4 2 2 1 1 1
13 11 10 10 7 8 9 8 8 7 6 10 11 11 9 7 5 5 5 5 3 2 2 3 2 5 5 5 3 3 3 4 1 4 4 5 3 3 4 3 3 3 2
10 10 9 7 6 7 4 6 5 7 8 9 8 7 6 5 5 4 4 2 3 1 1 5 5 5 4 2 2 1 2 4 4 2 2 5 6 10 7 3 4 3 2
8 7 9 9 8 7 7 6 6 6 5 5 4 5 6 4 4 4 4 5 3 2 4 6 6 3 3 6 4 1 1 4 4 4 5 5 6 4 3 5 6 7 3
11 10 8 5 6 5 9 11 9 9 8 9 6 6 6 5 4 4 5 3 3 4 6 6 6 5 4 8 7 2 2 2 1 2 4 4 3 5 5 8 7 7 5
9 10 6 5 6 4 3 6 8 10 8 7 7 6 6 6 6 5 4 4 3 7 7 6 5 4 3 9 8 8 4 6 5 6 6 6 4 6 6 5 5 4 5
7 7 7 5 4 3 2 5 7 6 7 6 7 7 8 7 6 5 4 3 5 6 5 5 5 5 5 10 8 7 4 5 6 5 6 5 5 5 7 5 5 5 5
7 5 7 4 4 4 4 7 7 8 7 6 6 5 7 7 7 5 3 1 3 6 5 6 5 7 6 8 9 6 4 5 4 3 3 7 5 5 6 4 3 4 4
8 6 6 5 4 1 4 7 6 8 5 5 7 6 6 5 5 3 2 3 6 6 6 5 4 6 5 5 9 9 4 3 3 2 1 2 7 7 4 2 2 3 4
6 6 6 5 4 4 5 6 6 4 4 5 4 5 5 3 3 4 3 4 5 7 5 6 4 2 3 5 7 8 9 4 2 2 3 4 8 8 6 3 3 5 4
6 5 5 5 4 5 4 7 3 4 4 4 5 5 5 4 4 4 4 3 3 4 4 5 5 4 2 2 7 7 7 8 3 1 5 9 3 7 10 12 13 10 6
7 5 6 5 2 4 6 5 4 4 5 6 4 4 4 5 5 3 3 4 3 3 3 3 3 4 3 1 2 2 3 5 4 6 4 5 10 9 6 7 8 5 4
7 7 7 6 6 6 5 4 4 5 4 5 4 4 3 4 4 4 4 3 2 2 3 2 3 5 3 2 1 3 0 2 2 4 2 3 4 6 6 6 5 5 4
7 6 6 7 7 6 7 7 6 4 3 2 1 2 3 3 2 2 3 8 5 6 7 5 2 1 2 6 6 4 3 3 2 3 3 3 4 6 4 5 4 4 6
Wind_Direction
159 151 158 151 150 150 153 139 140 155 130 92 105 101 123 149 146 243 168 156 171 112 116 78 79 116 57 357 325 299 27 23 23 64 31 357 319 266 244 231 232 226 235
151 149 153 156 157 154 164 144 160 155 137 122 135 144 167 140 149 229 157 102 130 134 103 111 144 78 53 18 7 26 25 7 17 104 90 24 330 310 231 234 253 238 236
151 156 158 158 153 155 160 159 157 149 137 127 113 72 59 40 52 26 355 41 21 42 137 136 104 69 81 51 358 30 28 18 332 58 113 36 248 326 351 22 19 26 13
171 162 164 163 166 162 158 162 153 151 146 148 127 146 159 156 199 172 221 247 65 18 184 167 146 90 106 52 29 44 8 55 22 42 56 54 195 144 7 47 29 82 57
173 173 173 168 166 159 163 164 156 159 152 156 156 158 161 176 147 177 220 264 291 20 224 185 168 147 144 62 35 40 42 31 96 69 65 51 18 34 116 100 330 351 50
153 175 175 170 166 159 162 155 162 164 159 157 168 176 167 169 156 200 197 213 233 101 31 146 196 172 134 168 150 280 97 87 98 105 76 121 177 294 111 97 245 285 284
145 152 165 174 169 169 167 164 163 177 168 163 168 180 184 177 177 193 211 186 182 195 217 132 164 168 209 193 220 309 116 110 99 95 116 139 211 191 147 115 86 215 274
160 155 160 173 175 169 171 174 168 175 178 169 174 176 175 190 194 183 183 216 202 178 206 167 156 200 198 217 222 192 252 108 155 124 71 172 177 203 199 156 140 25 306
166 176 147 135 129 146 171 178 173 179 181 179 170 178 179 184 203 191 166 212 203 192 194 192 154 186 211 232 233 222 233 91 197 283 56 35 121 178 204 182 162 134 355
168 164 155 147 138 129 109 83 182 186 187 178 184 181 173 188 165 160 179 195 211 205 178 193 218 222 266 253 216 190 162 106 243 176 168 298 279 153 187 187 201 202 170
184 143 134 144 145 147 136 112 295 190 191 182 171 167 171 169 157 176 190 188 206 229 219 206 242 227 245 238 191 196 200 234 299 300 280 273 244 251 189 180 184 171 175
154 147 155 153 157 167 175 167 222 258 191 182 149 175 155 144 161 177 190 190 215 215 214 219 228 231 211 171 218 225 221 209 247 258 276 280 278 297 277 240 17 32 320
137 160 162 176 192 186 171 205 192 215 190 136 134 184 205 195 198 182 155 150 209 232 233 222 224 224 9 10 22 331 279 250 235 249 260 273 283 287 275 279 290 252 120
153 164 158 180 180 179 196 176 205 203 183 158 174 192 197 208 196 172 180 169 206 223 243 256 94 101 91 67 27 33 300 213 287 269 277 287 267 267 280 267 258 229 244
163 176 136 155 164 159 130 165 178 171 161 145 155 170 174 164 159 159 161 260 279 341 309 97 79 85 84 70 309 280 316 281 212 266 85 71 63 60 33 297 283 252 253
167 156 149 166 170 148 152 172 172 170 170 129 175 162 157 168 182 161 169 174 194 201 118 121 119 96 49 354 349 342 298 322 271 232 154 123 65 346 340 344 297 248 211
122 112 121 132 132 139 166 214 202 168 174 169 171 159 148 179 188 161 142 120 171 134 107 100 98 75 27 351 316 226 186 191 288 115 121 93 55 14 359 345 359 52 23
102 98 81 64 44 46 88 180 202 173 169 153 155 146 143 140 114 106 111 97 80 117 123 122 126 114 46 10 7 15 122 88 66 76 86 95 65 29 7 19 51 48 31
70 90 92 91 63 13 23 106 115 121 105 116 127 138 140 122 110 120 122 116 117 118 123 125 116 85 40 13 36 65 69 80 83 91 89 92 76 28 25 59 26 15 16
79 87 105 101 95 44 25 82 75 100 85 71 82 87 103 111 115 124 106 56 131 126 119 106 94 86 71 19 42 69 91 99 108 99 67 69 59 23 30 64 48 18 352
92 85 82 85 87 81 91 84 88 91 87 74 71 68 84 103 118 127 119 126 120 119 117 112 102 97 68 48 54 46 66 73 84 58 58 30 9 0 17 33 61 61 326
91 94 98 89 62 38 79 81 81 66 76 88 93 84 64 57 103 124 119 95 129 135 133 117 100 95 98 79 40 57 65 29 86 31 330 323 346 17 23 57 83 61 69
113 109 100 81 73 77 78 99 98 90 90 83 87 85 83 58 35 68 50 65 106 133 156 161 159 145 113 60 48 38 55 45 105 341 298 297 330 96 64 54 64 64 61
116 115 107 107 96 101 115 128 142 126 109 100 91 81 91 71 44 45 52 82 43 59 65 62 94 140 143 69 13 13 19 21 22 350 359 18 88 80 75 62 57 62 61
147 149 147 148 154 144 134 147 149 138 138 140 141 134 111 103 88 53 26 68 38 12 118 135 122 133 174 219 55 300 335 67 16 333 1 66 54 80 72 60 56 47 41
144 148 164 158 157 152 152 166 170 163 167 161 136 158 135 137 130 112 67 26 46 1 31 30 155 88 99 152 191 220 219 258 266 81 77 66 82 88 84 79 68 45 54